[[{"header":{"parameterUnit":"m.s-1","parameterCategory":1,"la1":30.2992,"la2":30.254,"lo1":-89.0895,"lo2":-89.0443,"dy":0.0025,"dx":0.0025,"nx":19,"ny":19,"refTime":"2026-04-16T09:00:00:Z","depth":0,"parameterNumber":2,"parameterNumberName":"U-component_of_WINDS"},"data":[0,0,0,-0.2514,-0.2514,-0.2519,-0.2519,-0.2525,-0.2525,0,0,0,0,0,0,0,0,0,0,0,-0.2513,-0.2513,-0.2514,-0.2514,-0.2519,-0.2519,-0.2525,-0.2525,0,0,0,0,0,0,0,0,0,0,0,-0.2513,-0.2513,-0.2513,-0.2514,-0.2519,-0.2519,-0.2525,-0.2522,0,0,0,0,0,0,0,0,0,0,-0.2517,-0.2516,-0.2513,-0.2513,-0.2514,-0.2519,-0.2519,-0.2522,-0.2522,-0.2524,0,-0.2525,0,-0.2525,-0.2526,-0.2526,0,0,0,-0.2514,-0.2516,-0.2517,-0.2513,-0.2514,-0.2519,-0.2517,-0.2522,-0.2522,-0.2524,-0.2525,-0.2525,-0.2525,-0.2526,-0.2526,-0.2535,-0.2535,0,0,-0.2514,-0.2514,-0.2517,-0.2517,-0.2516,-0.2517,-0.2517,-0.2522,-0.2523,-0.2525,-0.2525,-0.2525,-0.2526,-0.2526,-0.2535,-0.2535,0,0,0,-0.2513,-0.2514,-0.2515,-0.2517,-0.2518,-0.2517,-0.2517,-0.2523,-0.2523,-0.2525,-0.2525,-0.2526,-0.2526,-0.2535,-0.2535,-0.2537,0,0,0,-0.2513,-0.2513,-0.2515,-0.2514,-0.2518,-0.252,-0.2517,-0.2523,-0.2523,-0.2525,-0.2526,-0.2526,-0.2535,-0.2535,-0.2537,-0.2538,0,0,0,-0.2513,-0.2513,-0.2514,-0.2514,-0.2516,-0.252,-0.2521,-0.2523,-0.2523,-0.2526,-0.2526,-0.2535,-0.2535,-0.2537,-0.2538,-0.2541,0,0,0,-0.2512,-0.2515,-0.2514,-0.2517,-0.2516,-0.2521,-0.2521,-0.2524,-0.2527,-0.2526,-0.2535,-0.2535,-0.2537,-0.2538,-0.2541,-0.2544,-0.2545,0,0,-0.2515,-0.2515,-0.2517,-0.2517,-0.2522,-0.252,-0.2526,-0.2528,-0.2529,-0.2533,-0.2534,-0.2537,-0.2538,-0.2541,-0.2551,-0.2552,0,0,0,-0.2518,-0.252,-0.2521,-0.2524,-0.2526,-0.2529,-0.253,-0.2532,-0.2535,-0.2531,-0.2539,-0.2539,-0.2541,-0.2543,-0.2544,-0.2546,-0.2536,-0.2536,-0.2536,-0.2522,-0.2524,-0.2528,-0.253,-0.2532,-0.2535,-0.2537,-0.2539,-0.2539,-0.2541,-0.2543,-0.2548,-0.255,-0.2551,-0.2553,-0.2544,-0.2544,-0.2544,-0.2544,-0.2528,-0.2531,-0.2532,-0.2536,-0.2538,-0.2542,-0.2545,-0.2545,-0.2549,-0.2547,-0.2549,-0.2547,-0.2552,-0.2554,-0.2544,-0.2544,-0.2544,-0.2544,-0.2544,-0.2531,-0.2533,-0.2535,-0.2539,-0.2543,-0.2545,-0.255,-0.2551,-0.2552,-0.2554,-0.2556,-0.2556,-0.2557,-0.2555,-0.2555,-0.2555,-0.2555,-0.2555,-0.2555,-0.2534,-0.2536,-0.2539,-0.2543,-0.2546,-0.2549,-0.2553,-0.2556,-0.2559,-0.2559,-0.2559,-0.256,-0.2552,-0.255,-0.2555,-0.2555,-0.2555,-0.2555,-0.2555,-0.2539,-0.2539,-0.2544,-0.2547,-0.2552,-0.2557,-0.2558,-0.2564,-0.2567,-0.2569,-0.257,-0.2563,-0.2563,-0.2562,-0.2561,-0.2569,-0.2569,-0.2569,-0.2569,-0.2542,-0.2543,-0.2549,-0.2554,-0.2558,-0.2561,-0.2569,-0.2572,-0.2576,-0.2578,-0.2577,-0.2575,-0.2574,-0.2574,-0.2574,-0.2572,-0.2583,-0.2583,-0.2583,-0.2546,-0.2548,-0.2553,-0.2557,-0.2562,-0.2566,-0.2573,-0.2579,-0.2583,-0.2583,-0.2579,-0.2579,-0.2576,-0.2575,-0.2575,-0.2573,-0.2571,0,0]},{"header":{"parameterUnit":"m.s-1","parameterCategory":1,"la1":30.2992,"la2":30.254,"lo1":-89.0895,"lo2":-89.0443,"dy":0.0025,"dx":0.0025,"nx":19,"ny":19,"refTime":"2026-04-16T09:00:00:Z","depth":0,"parameterNumber":3,"parameterNumberName":"V-component_of_WINDS"},"data":[0,0,0,3.543,3.5431,3.5488,3.5488,3.5567,3.5567,0,0,0,0,0,0,0,0,0,0,0,3.5419,3.542,3.543,3.5432,3.5488,3.5488,3.5567,3.5567,0,0,0,0,0,0,0,0,0,0,0,3.5419,3.542,3.5421,3.5432,3.5488,3.5488,3.5566,3.5521,0,0,0,0,0,0,0,0,0,0,3.5465,3.5461,3.5419,3.5421,3.5432,3.5488,3.5488,3.5519,3.5524,3.5544,0,3.5566,0,3.5568,3.5573,3.5574,0,0,0,3.5427,3.5457,3.5467,3.5421,3.5433,3.5488,3.5461,3.5521,3.5527,3.5551,3.5567,3.557,3.5569,3.5574,3.5574,3.5711,3.5711,0,0,3.5423,3.5432,3.5463,3.5471,3.5465,3.546,3.5463,3.5525,3.5542,3.5567,3.5571,3.5571,3.5574,3.5575,3.571,3.5711,0,0,0,3.5418,3.543,3.5439,3.5468,3.5478,3.5461,3.5465,3.5539,3.5541,3.5572,3.5572,3.5575,3.5576,3.5709,3.571,3.5759,0,0,0,3.5416,3.5427,3.5437,3.5443,3.5477,3.551,3.5479,3.5537,3.5544,3.5571,3.5575,3.5577,3.5708,3.571,3.5756,3.578,0,0,0,3.5413,3.5426,3.5437,3.5444,3.5469,3.5509,3.5514,3.5538,3.5544,3.5574,3.5577,3.5707,3.5709,3.5753,3.5776,3.5816,0,0,0,3.5413,3.5482,3.5438,3.5514,3.5468,3.554,3.5514,3.5567,3.5599,3.5575,3.5708,3.571,3.5752,3.5772,3.5813,3.585,3.5867,0,0,3.5504,3.5493,3.5537,3.5499,3.5581,3.5531,3.5619,3.564,3.5635,3.5685,3.5688,3.5757,3.5775,3.5816,3.5966,3.5979,0,0,0,3.5568,3.5599,3.5619,3.565,3.5668,3.5684,3.5691,3.5698,3.574,3.5663,3.5784,3.5795,3.5818,3.5835,3.5847,3.5864,3.5719,3.5719,3.5719,3.5708,3.5697,3.5767,3.5763,3.5794,3.5799,3.5821,3.5831,3.5813,3.5841,3.5855,3.5947,3.5968,3.5977,3.5995,3.5876,3.5877,3.5877,3.5877,3.5837,3.5877,3.585,3.5908,3.5896,3.5944,3.5951,3.5935,3.5976,3.5937,3.5957,3.5911,3.5992,3.6007,3.5881,3.588,3.5879,3.5879,3.5879,3.5924,3.5941,3.595,3.5991,3.6024,3.6017,3.6057,3.6045,3.6034,3.6054,3.6065,3.6064,3.6058,3.6061,3.6061,3.6061,3.6062,3.6062,3.6062,3.601,3.6018,3.6054,3.6077,3.6093,3.6114,3.6118,3.6134,3.6147,3.6135,3.6135,3.611,3.6003,3.5974,3.6067,3.6066,3.6065,3.6065,3.6065,3.6139,3.6108,3.6163,3.618,3.6204,3.6235,3.622,3.6251,3.6262,3.6282,3.6254,3.6178,3.6165,3.6155,3.6131,3.6258,3.6258,3.6258,3.6259,3.6211,3.6204,3.6255,3.6282,3.6306,3.6297,3.6356,3.636,3.6358,3.6364,3.6344,3.6312,3.6303,3.6295,3.6283,3.626,3.6417,3.6417,3.6417,3.6287,3.6282,3.6335,3.6334,3.6351,3.6366,3.642,3.6449,3.6441,3.6424,3.6367,3.636,3.6308,3.6293,3.6271,3.6252,3.6209,0,0]}]]